Location: Sceptre
(50.8619°N, 109.2670°W)
Time: 16:54:38
(UTC+00:00)

SEEDS - Pass Details

Date: 04 July 2022
Orbit: 580 x 597 km, 97.6° (Epoch: 17 August)

Event Time Altitude Azimuth Distance (km) Brightness Sun altitude
Rises 10:09:49 0° 32° (NNE) 2,815 ? -7.5°
Reaches altitude 10° 10:13:38 10° 69° (ENE) 1,905 ? -7.1°
Maximum altitude 10:14:50 11° 86° (E) 1,832 ? -7.0°
Drops below altitude 10° 10:16:03 10° 103° (ESE) 1,900 ? -6.9°
Sets 10:19:49 0° 139° (SE) 2,791 ? -6.5°
